Zurück zum Katalog

CZ-4C DEB

AktivLEO
NORAD 45484·DEBRIS·🇨🇳 China

Gestartet Apr 10, 2018 von Jiuquan Satellite Launch Center

Loading…

Nächste Überflüge (nächste 24 Stunden)

TLE

AktuellSource: Space-Track

Epoche: Sep 14, 2026, 10:38 UTC

1 45484U 18034M   26257.44369022 -.00000077  00000-0  17648-4 0  9998
2 45484  63.3859 253.3850 0273560   9.0785 351.5043 13.42946604379390

Verfolge CZ-4C DEB in Echtzeit mit AllMySat

Download on the App Store